www.pogodaiklimat.ru

Погода и климат >> Архив погоды >> Китай >> Внутренняя Монголия >> Линьхэ


ПОГОДА в Линьхэ

  • Прогноз погоды в Линьхэ
  • Монитор погоды в Линьхэ

АРХИВ ПОГОДЫ в Линьхэ

Время (UTC), дата Ветер
(напр.,м/с)
 
Видим.   Явления Облачность Т
(С)
Тd
(С)
f
(%)
Тe
(С)
Тes
(С)
Комфортность P
(гПа)
Po
(гПа)
Тmin
(С)
Tmax
(С)
R
(мм)
R24
(мм)
S
(см)
12 16.07 Ю 1 30 км ясно +26.4 +16.1 53 +30 +30 душно 1001.0 888.6
15 16.07 Ю 1 29 км слаб. дождь н/о +20.7 +15.5 72 +25 +25 комфорт 1003.0 888.6
18 16.07 ЮВ 1 18 км ?/? +18.5 +16.3 87 +20 +20 1003.0 890.3 +30.3
21 16.07 В 1 н/о дымка н/о +17.2 +16.1 93 +18 +18 1002.9 887.2
00 17.07 В 1 11 км 3/3
[]
+21.9 +18.1 79 +27 +30 душно 1003.3 890.9 0.0
03 17.07 Ю 2 15 км 9/9
[]
+26.9 +17.4 56 +31 +33 душно 1003.3 891.1
06 17.07 СЗ 2 28 км 9/9
[]
+29.8 +16.9 46 +33 +35 душно 1002.4 890.1 +17.1
09 17.07 В 4 30 км 9/9
[]
+30.4 +16.4 43 +34 +34 очень
душно
1001.3 890.6
12 17.07 СВ 2 30 км 8/8
[]
+28.0 +16.3 49 +31 +31 душно 1001.2 889.4
15 17.07 В 2 26 км н/о +25.8 +16.1 55 +29 +29 душно 1001.7 889.3
18 17.07 В 2 19 км ?/? +22.7 +17.2 71 +28 +28 душно 1001.7 890.3 +30.6
21 17.07 В 1 17 км н/о +20.4 +17.4 83 +25 +25 комфорт 1002.0 887.6
00 18.07 ЮВ 1 20 км 9/9
[]
+22.9 +18.2 75 +29 +29 очень
душно
1002.6 890.8
03 18.07 ЮВ 2 30 км 9/9 1500 м
[]
+28.0 +17.2 52 +32 +34 душно 1002.3 890.6
06 18.07 В 2 30 км 9/9 1000 м
[]
+31.1 +15.1 38 +33 +35 душно 1000.8 889.7 +19.9
09 18.07 В 2 30 км 9/9 1000 м
[]
+30.9 +15.7 40 +34 +34 душно 999.4 889.0
12 18.07 З 2 30 км 9/9 1000 м
[]
+27.9 +17.7 54 +32 +32 душно 1000.4 888.8
15 18.07 Ю 1 21 км н/о +22.9 +18.4 76 +29 +29 очень
душно
1000.8 887.5
18 18.07 Ю 1 16 км ?/? +22.8 +18.6 77 +29 +29 очень
душно
999.2 888.3 +32.0
21 18.07 СЗ 2 18 км слаб. дождь ?/? +18.7 +17.2 91 +20 +20 1001.4 886.5
00 19.07 ЮЗ 2 22 км в посл. час дождь 9/9 600 м
[]
+19.5 +18.0 91 +22 +23 комфорт 1003.2 890.7 6
03 19.07 З 4 30 км 9/9 1000 м
[]
+23.6 +18.0 71 +28 +29 душно 1003.2 889.9
06 19.07 З 3 30 км 8/8 1000 м
[]
+27.1 +18.7 60 +32 +35 очень
душно
1000.8 889.0 +18.3
09 19.07 Ю 1 21 км слаб. дождь 9/9 600 м
[]
+25.0 +18.0 65 +29 +30 душно 1001.1 888.5
12 19.07 Ю 1 30 км {дождь} 8/8 1000 м
[]
+25.0 +18.4 67 +30 +30 душно 1001.5 888.7 0.0
15 19.07 СЗ 1 30 км н/о +20.3 +18.1 87 +25 +25 комфорт 1002.3 887.9
18 19.07 ЮЗ 1 12 км ?/? +18.5 +17.5 94 +20 +20 1002.2 889.5 +29.2
21 19.07 Ю 1 7000 м дымка ?/? +17.6 +16.8 95 +19 +19 1002.7 887.2
00 20.07 ЮВ 1 14 км ясно +22.3 +18.3 78 +27 +32 душно 1002.9 890.4
03 20.07 ЮЗ 1 12 км ясно +27.5 +19.0 60 +33 +52 опасность
солнечного
удара
1002.6 890.7
06 20.07 Ю 2 24 км ясно +32.3 +16.6 39 +35 +54 опасность
солнечного
удара
1000.6 889.0 +17.1
09 20.07 З 1 30 км 3/3 1000 м
[]
+34.6 +11.1 24 +34 +40 очень
жарко
999.2 890.1
12 20.07 штиль 0 30 км 9/9
[]
+27.0 +18.8 61 +32 +32 очень
душно
1000.0 888.2
15 20.07 В 2 30 км н/о +24.2 +13.1 50 +26 +26 жарко 999.8 887.1
18 20.07 В 1 30 км ?/? +20.4 +13.8 66 +24 +24 комфорт 999.6 888.4 +34.7
21 20.07 В 2 30 км н/о +18.6 +14.3 76 +20 +20 999.7 884.9
00 21.07 В 2 30 км 9/9
[]
+25.1 +15.4 55 +28 +28 жарко 1000.7 889.3
03 21.07 СВ 1 30 км 9/9
[]
+31.8 +15.3 37 +34 +36 душно 999.6 889.5
06 21.07 В 1 30 км 9/9 1000 м
[]
+32.3 +18.1 43 +37 +39 очень
душно
999.3 888.2 +18.3
09 21.07 штиль 0 30 км 10/10 1000 м
[]
+29.3 +19.6 56 +35 +35 очень
душно
999.4 888.5
12 21.07 З 1 6000 м в посл. час дождь 9/9 1000 м
[]
+25.9 +15.0 51 +29 +29 душно 999.7 888.2 0.0
15 21.07 штиль 0 30 км в посл. час дождь н/о +19.5 +18.0 91 +22 +22 комфорт 1000.7 886.2
18 21.07 Ю 1 22 км ?/? +20.4 +16.6 79 +25 +25 комфорт 1000.2 889.0 +33.1 10
21 21.07 ЮВ 2 30 км в посл. час дождь ?/? +19.9 +16.3 80 +23 +23 комфорт 1000.3 885.9
00 22.07 ЮВ 2 30 км 8/8 1500 м
[]
+20.8 +17.0 79 +25 +26 комфорт 1001.0 888.6 10
03 22.07 В 2 30 км 9/9 1000 м
[]
+23.9 +17.4 67 +28 +29 душно 1001.5 888.5
06 22.07 З 2 19 км 8/8 1000 м
[]
+26.2 +15.9 53 +29 +33 жарко 1000.1 887.8 +19.3
09 22.07 ЮЗ 2 30 км 1/1 1000 м
[]
+28.7 +14.5 42 +31 +37 жарко 998.0 887.0
12 22.07 Ю 1 30 км ясно +24.7 +17.7 65 +29 +29 душно 998.7 886.4
15 22.07 штиль 0 30 км н/о +19.1 +15.8 81 +20 +20 999.9 885.3
18 22.07 штиль 0 23 км ?/? +17.2 +15.4 89 +17 +17 1000.0 887.1 +29.2
21 22.07 штиль 0 21 км н/о +15.3 +14.0 92 +15 +15 1000.2 884.1
00 23.07 З 2 18 км 8/8
[]
+20.7 +15.0 70 +24 +25 комфорт 1000.8 888.2
03 23.07 З 2 29 км 6/6 1000 м
[]
+26.1 +14.9 50 +29 +35 жарко 1000.7 888.5
06 23.07 З 1 30 км 8/8 1000 м
[]
+31.2 +10.5 28 +31 +35 жарко 999.6 887.7 +15.0
09 23.07 СЗ 3 30 км 9/9 1000 м
[]
+30.7 +10.6 29 +31 +31 жарко 999.2 888.8

 

Местоположение метеостанции Линьхэ (Внутренняя Монголия, Китай): широта 40.77 долгота 107.40 высота над уровнем моря 1041 м.

В архиве по умолчанию представлена погода в Линьхэ за последнюю неделю. Архивные данные за месяц целиком и за предыдущие месяцы, начиная с января 2011 года, Вы можете получить, выбрав интересующий диапазон дат из раскрывающегося списка и нажав кнопку "Ввод!".


*Определитесь, кто Вы:
робот инопланетянин человек

Внимание! Время в таблицах - всемирное. Для получения местного времени необходимо прибавить поправку, которая равна 8 ч.

Смотрите также архив погоды в соседних городах и на ближайших метеорологических станциях:

Погода в Баинвендурьере (Внутренняя Монголия, Китай) (114 км)
Погода в Хэй Лю Чжэнь (Внутренняя Монголия, Китай) (129 км)
Погода в Джартае (Внутренняя Монголия, Китай) (178 км)
Погода в Отог-Ци (Внутренняя Монголия, Китай) (192 км)
Погода в Дуншэне (Внутренняя Монголия, Китай) (243 км)
Погода в Баян Мод (Внутренняя Монголия, Китай) (244 км)
Погода в Ханбогде (Монголия) (271 км)
Погода в Дархан-Мумингане (Внутренняя Монголия, Китай) (274 км)
Погода в Иньчуане (Нинся-Хуэйский автономный район, Китай) (276 км)
Погода в Мандале (Внутренняя Монголия, Китай) (300 км)

Пояснения к столбцам:

Ветер - указаны скорость ветра в м/с - средняя за 10 мин, порывы в срок и между сроками (в фигурных скобках) и направление, откуда дует ветер: С - северный, СВ - северо-восточный, В - восточный, ЮВ - юго-восточный, Ю - южный, ЮЗ - юго-западный, З - западный, СЗ - северо-западный.
Видимость - горизонтальная дальность видимости в метрах или километрах. При видимости от 1 до 10 км при отсутствии осадков обычно наблюдается дымка, при ухудшении видимости до 1 км и менее - туман. В сухую погоду видимость может ухудшаться дымом, пылью или мглою.
Явления - указаны атмосферные явления, наблюдавшиеся в срок или в последний час перед сроком; фигурными скобками обозначены явления, наблюдавшиеся между сроками (за 1-3 часа до срока); квадратными скобками обозначены град или гололедные отложения с указанием их диаметра в мм.
Облачность - указаны через наклонную черту общая и нижняя облачность в баллах и высота нижней границы облаков в метрах; квадратными скобками обозначены формы облаков: Ci - перистые, Cs - перисто-слоистые, Cc - перисто-кучевые, Ac - высококучевые, As - высокослоистые, Sc - слоисто-кучевые, Ns - слоисто-дождевые, Cu - кучевые, Cb - кучево-дождевые. Подробнее классификацию облаков см. в Атласе облаков (PDF).
T - Температура воздуха - температура, измеренная на высоте 2 м над землей.
Td - Температура точки росы - температура, при понижении до которой содержащийся в воздухе водяной пар достигнет насыщения.
f - Относительная влажность воздуха - влажноcть воздуха, измеренная на высоте 2 м над землей.
Te - Эффективная температура - температура, которую ощущает одетый по сезону человек в тени. Характеристика душности погоды. При расчете учитывается влияние влажности воздуха и скорости ветра на теплоощущения человека.
Tes - Эффективная температура на солнце - температура, которую ощущает человек, с поправкой на солнечный нагрев. Характеристика знойности погоды. Зависит от высоты солнца над горизонтом, облачности и скорости ветра. Ночью, в пасмурную погоду, а также при ветре 12 м/с и более поправка равна нулю.
P - Атмосферное давление - приведенное к уровню моря атмосферное давление.
Po - Атмосферное давление - измеренное на уровне метеостанции атмосферное давление.
Tmin - Минимальная температура - минимум температуры воздуха на высоте 2 м над землей.
Tmax - Максимальная температура - максимум температуры воздуха на высоте 2 м над землей.
R - Количество осадков - Количество выпавших осадков за период времени, мм. При наведении курсора мыши на число - период времени, за который выпало указанное количество осадков.
R24 - Количество осадков - Количество выпавших осадков за 24 часа, мм.
S - Снежный покров - Высота снежного покрова, см. При наведении курсора мыши на число - состояние снежного покрова и степень покрытия местности в баллах.